This demonstration page uses our WeatherBlox Daily Observations layout. Learn more.

Left ArrowRight Arrow

39.01783, -85.05884

Hourly Observations for August 7, 2015

Temp ( °F °C ) Dew Point ( °F °C ) Humidity (%) Winds ( mph kmh ) Pressure ( in mb ) Visibility ( mi km ) Precip ( " mm )
12:52 am 00:52 Cloudy 65 18.3 60 15.6 84 84 NE 10 17 29.87 1012 10 16.0934 N/A
1:52 am 01:52 Cloudy 65 18.3 59 15 81 81 NNE 9 15 29.87 1012 10 16.0934 N/A
2:52 am 02:52 Cloudy 65 18.3 59 15 81 81 N 7 11 29.86 1011 10 16.0934 N/A
3:48 am 03:48 Partly Cloudy 64 18 59 15 83 83 ENE 8 13 29.83 1010 10 16.0934 N/A
3:52 am 03:52 Partly Cloudy 65 18.3 59 15 81 81 NE 8 13 29.84 1011 10 16.0934 N/A
4:22 am 04:22 Mostly Cloudy 64 18 61 16 88 88 N 8 13 29.85 1011 10 16.0934 N/A
4:52 am 04:52 Cloudy 64 17.8 60 15.6 87 87 N 12 19 29.86 1011 10 16.0934 N/A
5:52 am 05:52 Cloudy 64 17.8 59 15 84 84 NE 6 9 29.85 1011 10 16.0934 N/A
6:52 am 06:52 Cloudy 65 18.3 59 15 81 81 NNE 5 7 29.87 1012 10 16.0934 N/A
7:31 am 07:31 Mostly Cloudy 64 18 59 15 83 83 NNE 6 9 29.85 1011 10 16.0934 N/A
7:52 am 07:52 Mostly Cloudy 65 18.3 59 15 81 81 N 6 9 29.88 1012 10 16.0934 N/A
8:52 am 08:52 Mostly Cloudy 67 19.4 60 15.6 79 79 N 7 11 29.88 1012 10 16.0934 N/A
9:29 am 09:29 Mostly Cloudy 68 20 61 16 78 78 VRB 5 7 29.88 1012 10 16.0934 N/A
9:52 am 09:52 Mostly Cloudy 69 20.6 61 16.1 76 76 N 5 7 29.89 1012 10 16.0934 N/A
10:52 am 10:52 Mostly Cloudy 72 22.2 61 16.1 68 68 N N/A 29.9 1013 10 16.0934 N/A
11:30 am 11:30 Mostly Cloudy 73 23 63 17 69 69 N N/A 29.88 1012 10 16.0934 N/A
11:52 am 11:52 Partly Cloudy 75 23.9 63 17.2 66 66 ENE 8 13 29.89 1012 10 16.0934 N/A
12:52 pm 12:52 Partly Cloudy 78 25.6 64 17.8 62 62 NNW 8 13 29.89 1012 10 16.0934 N/A
1:52 pm 13:52 Partly Cloudy 78 25.6 63 17.2 60 60 VRB 5 7 29.88 1012 10 16.0934 N/A
2:52 pm 14:52 Partly Cloudy 81 27.2 64 17.8 57 57 N N/A 29.88 1012 10 16.0934 N/A
3:52 pm 15:52 Mostly Cloudy 83 28.3 63 17.2 51 51 NNE 5 7 29.87 1012 10 16.0934 N/A
4:52 pm 16:52 Cloudy 81 27.2 63 17.2 54 54 NW 6 9 29.87 1012 10 16.0934 N/A
5:52 pm 17:52 Mostly Cloudy 80 26.7 63 17.2 56 56 N 6 9 29.86 1011 10 16.0934 N/A
6:52 pm 18:52 Partly Cloudy 81 27.2 63 17.2 54 54 N 8 13 29.85 1011 10 16.0934 N/A
7:52 pm 19:52 Mostly Cloudy 78 25.6 63 17.2 60 60 NNW 5 7 29.85 1011 10 16.0934 N/A
8:52 pm 20:52 Mostly Cloudy 76 24.4 63 17.2 64 64 N 7 11 29.86 1011 10 16.0934 N/A
9:52 pm 21:52 Mostly Cloudy 73 22.8 63 17.2 71 71 N 6 9 29.88 1012 10 16.0934 N/A
10:52 pm 22:52 Partly Cloudy 73 22.8 61 16.1 66 66 N 5 7 29.89 1012 10 16.0934 N/A
11:52 pm 23:52 Mostly Cloudy 72 22.2 61 16.1 68 68 N 3 6 29.89 1012 10 16.0934 N/A

Powered by AerisWeather